TimeEST,TemperatureF,Dew PointF,Humidity,Sea Level PressureIn,VisibilityMPH,Wind Direction,Wind SpeedMPH,Gust SpeedMPH,PrecipitationIn,Events,Conditions,WindDirDegrees,DateUTC
12:53 AM,45.0,37.0,74,30.20,10.0,Calm,Calm,-,N/A,,Overcast,0,2012-12-07 05:53:00
1:53 AM,45.0,35.1,68,30.20,10.0,Calm,Calm,-,N/A,,Overcast,0,2012-12-07 06:53:00
2:14 AM,44.6,35.6,71,30.20,10.0,Calm,Calm,-,N/A,,Overcast,0,2012-12-07 07:14:00
2:53 AM,46.0,34.0,63,30.19,10.0,Calm,Calm,-,N/A,,Overcast,0,2012-12-07 07:53:00
3:53 AM,45.0,35.1,68,30.18,10.0,Calm,Calm,-,N/A,,Overcast,0,2012-12-07 08:53:00
4:26 AM,44.6,33.8,66,30.18,10.0,Calm,Calm,-,N/A,,Overcast,0,2012-12-07 09:26:00
4:40 AM,46.4,33.8,62,30.17,10.0,Calm,Calm,-,N/A,,Overcast,0,2012-12-07 09:40:00
4:53 AM,46.0,34.0,63,30.17,10.0,Calm,Calm,-,N/A,,Overcast,0,2012-12-07 09:53:00
5:09 AM,46.4,33.8,62,30.17,10.0,Calm,Calm,-,N/A,,Overcast,0,2012-12-07 10:09:00
5:32 AM,46.4,33.8,62,30.16,10.0,Calm,Calm,-,N/A,,Overcast,0,2012-12-07 10:32:00
5:53 AM,46.0,33.1,61,30.15,10.0,Calm,Calm,-,N/A,,Overcast,0,2012-12-07 10:53:00
6:53 AM,46.0,34.0,63,30.16,10.0,Calm,Calm,-,N/A,,Overcast,0,2012-12-07 11:53:00
7:53 AM,46.0,34.0,63,30.16,10.0,Calm,Calm,-,N/A,,Overcast,0,2012-12-07 12:53:00
8:53 AM,46.9,35.1,63,30.17,10.0,Calm,Calm,-,N/A,,Overcast,0,2012-12-07 13:53:00
9:53 AM,48.0,35.1,61,30.17,10.0,Calm,Calm,-,N/A,,Overcast,0,2012-12-07 14:53:00
10:53 AM,48.9,35.1,59,30.15,10.0,Calm,Calm,-,N/A,,Overcast,0,2012-12-07 15:53:00
11:29 AM,50.0,35.6,58,30.15,10.0,Calm,Calm,-,N/A,,Overcast,0,2012-12-07 16:29:00
11:53 AM,50.0,35.1,57,30.12,10.0,Calm,Calm,-,N/A,,Overcast,0,2012-12-07 16:53:00
12:53 PM,50.0,37.9,63,30.08,9.0,Calm,Calm,-,0.00,Rain,Light Rain,0,2012-12-07 17:53:00
1:53 PM,51.1,39.9,66,30.06,10.0,Calm,Calm,-,0.00,,Overcast,0,2012-12-07 18:53:00
2:53 PM,48.9,44.1,83,30.04,10.0,Calm,Calm,-,0.01,Rain,Light Rain,0,2012-12-07 19:53:00
3:34 PM,48.2,44.6,87,30.05,2.5,Calm,Calm,-,0.04,Rain,Light Rain,0,2012-12-07 20:34:00
3:37 PM,48.2,44.6,87,30.05,3.0,Calm,Calm,-,0.05,Rain,Light Rain,0,2012-12-07 20:37:00
3:46 PM,48.2,44.6,87,30.05,6.0,Calm,Calm,-,0.05,Rain,Light Rain,0,2012-12-07 20:46:00
3:53 PM,48.0,44.1,86,30.04,9.0,Calm,Calm,-,0.05,,Overcast,0,2012-12-07 20:53:00
4:26 PM,48.2,44.6,87,30.05,9.0,Calm,Calm,-,0.01,,Overcast,0,2012-12-07 21:26:00
4:53 PM,48.0,45.0,89,30.04,7.0,Calm,Calm,-,0.03,,Overcast,0,2012-12-07 21:53:00
5:09 PM,48.2,44.6,87,30.05,2.0,Calm,Calm,-,0.03,Rain,Light Rain,0,2012-12-07 22:09:00
5:15 PM,46.4,44.6,93,30.05,3.0,Calm,Calm,-,0.04,Rain,Light Rain,0,2012-12-07 22:15:00
5:36 PM,46.4,44.6,93,30.05,9.0,Calm,Calm,-,0.05,,Overcast,0,2012-12-07 22:36:00
5:51 PM,46.4,44.6,93,30.05,6.0,Calm,Calm,-,0.05,,Overcast,0,2012-12-07 22:51:00
5:53 PM,46.9,45.0,93,30.04,5.0,Calm,Calm,-,0.05,,Overcast,0,2012-12-07 22:53:00
6:31 PM,46.4,44.6,93,30.05,6.0,Calm,Calm,-,0.00,,Overcast,0,2012-12-07 23:31:00
6:53 PM,46.9,45.0,93,30.03,6.0,Calm,Calm,-,0.01,Rain,Light Rain,0,2012-12-07 23:53:00
9:53 PM,48.0,45.0,89,30.02,2.5,West,3.5,-,N/A,,Overcast,280,2012-12-08 02:53:00
10:53 PM,46.9,45.0,93,30.01,2.0,Calm,Calm,-,0.01,,Overcast,0,2012-12-08 03:53:00
11:30 PM,48.2,46.4,93,30.02,1.8,Calm,Calm,-,N/A,,Overcast,0,2012-12-08 04:30:00
11:53 PM,48.0,46.0,93,30.00,1.5,Calm,Calm,-,N/A,,Overcast,0,2012-12-08 04:53:00